Вернуться в каталог

STARLINK-37879

АктивенСвязьSSO
NORAD 69490·PAYLOAD·🇺🇸 United States

Запущен Jun 11, 2026 с Vandenberg Space Force Base

Loading…

Ближайшие Пролёты (ближайшие 24 часа)

TLE

СвежийSource: CelesTrak SupGP

Эпоха: Sep 15, 2026, 03:16 UTC

1 69490C 26131N   26258.13659722 -.00049579  00000+0 -15392-2 0  2584
2 69490  97.2833 279.0921 0001406  93.7481   4.8809 15.33461527    12

Отслеживайте STARLINK-37879 в реальном времени с AllMySat

Download on the App Store